OK,168,28,835,168,2014-10-01T01:40:00,0,28072605,201211
OK,168,28,835,168,2014-10-01T01:45:00,0,28073052,201211
OK,168,28,835,168,2014-10-01T01:50:00,0,28073501,201211
OK,168,28,835,168,2014-10-01T01:55:00,0,28073819,201211
OK,168,28,835,168,2014-10-01T02:00:00,0,28074267,201211
OK,168,28,835,168,2014-10-01T02:05:00,0,28074710,201211
OK,168,28,835,168,2014-10-01T02:10:00,0,28075156,201211
OK,168,28,835,168,2014-10-01T02:20:00,0,28075605,201211
OK,168,28,835,168,2014-10-01T02:25:00,0,28076437,201211
OK,168,28,835,168,2014-10-01T02:30:00,0,28076886,201211
OK,168,28,835,168,2014-10-01T02:35:00,0,28077335,201211
OK,168,28,835,168,2014-10-01T02:40:00,0,28077741,201211
OK,168,28,835,168,2014-10-01T02:45:00,0,28078187,201211
OK,168,28,835,168,2014-10-01T02:50:00,0,28078632,201211
OK,168,28,835,168,2014-10-01T02:55:00,0,28079081,201211
OK,168,28,835,168,2014-10-01T03:00:00,0,28079523,201211
OK,168,28,835,168,2014-10-01T03:05:00,0,28079972,201211
OK,168,28,835,168,2014-10-01T03:10:00,0,28080310,201211
OK,168,28,835,168,2014-10-01T03:15:00,0,28080755,201211
OK,168,28,835,168,2014-10-01T03:20:00,0,28081204,201211
OK,168,28,835,168,2014-10-01T03:25:00,0,28081651,201211
OK,168,28,835,168,2014-10-01T03:30:00,0,28082100,201211
OK,168,28,835,168,2014-10-01T03:35:00,0,28082536,201211
OK,168,28,835,168,2014-10-01T03:40:00,0,28082966,201211
OK,90,53,835,90,2014-10-01T03:45:00,1,28083414,201211
OK,90,53,835,90,2014-10-01T03:55:00,1,28083863,201211
OK,90,53,835,90,2014-10-01T04:00:00,0,28084734,201211
OK,90,53,835,90,2014-10-01T04:05:00,0,28085178,201211
OK,90,53,835,90,2014-10-01T04:10:00,0,28085624,201211
OK,90,53,835,90,2014-10-01T04:15:00,0,28086072,201211
OK,90,53,835,90,2014-10-01T04:20:00,0,28086515,201211
OK,90,53,835,90,2014-10-01T04:25:00,0,28086963,201211
OK,90,53,835,90,2014-10-01T04:30:00,0,28087408,201211
OK,90,53,835,90,2014-10-01T04:35:00,0,28087857,201211
OK,90,53,835,90,2014-10-01T04:40:00,0,28088285,201211
OK,142,33,835,142,2014-10-01T04:45:00,1,28088730,201211
OK,142,33,835,142,2014-10-01T04:50:00,1,28089162,201211
OK,126,38,835,126,2014-10-01T04:55:00,1,28089609,201211
OK,164,29,835,164,2014-10-01T05:05:00,1,28090058,201211
OK,164,29,835,164,2014-10-01T05:10:00,0,28090851,201211
OK,164,29,835,164,2014-10-01T05:15:00,0,28091300,201211
OK,104,46,835,104,2014-10-01T05:20:00,1,28091720,201211
OK,101,47,835,101,2014-10-01T05:25:00,2,28092166,201211
OK,98,48,835,98,2014-10-01T05:30:00,1,28092611,201211
OK,183,26,835,183,2014-10-01T05:35:00,1,28093052,201211
OK,183,26,835,183,2014-10-01T05:40:00,0,28093482,201211
OK,183,26,835,183,2014-10-01T05:45:00,0,28093931,201211
OK,183,26,835,183,2014-10-01T05:50:00,0,28094346,201211
OK,183,26,835,183,2014-10-01T05:55:00,0,28094787,201211
OK,183,26,835,183,2014-10-01T06:00:00,0,28095234,201211
OK,149,32,835,149,2014-10-01T06:05:00,1,28095683,201211
OK,149,32,835,149,2014-10-01T06:10:00,1,28096099,201211
OK,140,34,835,140,2014-10-01T06:15:00,3,28096545,201211
OK,102,47,835,102,2014-10-01T06:20:00,1,28096982,201211
OK,138,34,835,138,2014-10-01T06:25:00,1,28097428,201211
OK,134,35,835,134,2014-10-01T06:30:00,2,28097877,201211
OK,136,35,835,136,2014-10-01T06:35:00,3,28098316,201211
OK,126,38,835,126,2014-10-01T06:40:00,3,28098759,201211
OK,192,24,835,192,2014-10-01T06:45:00,3,28099206,201211
OK,209,22,835,209,2014-10-01T06:50:00,2,28099553,201211
OK,227,21,835,227,2014-10-01T06:55:00,0,28099998,201211
OK,129,37,835,129,2014-10-01T07:00:00,1,28100309,201211
OK,101,47,835,101,2014-10-01T07:05:00,3,28100754,201211
OK,96,49,835,96,2014-10-01T07:10:00,2,28101128,201211
OK,170,28,835,170,2014-10-01T07:15:00,1,28101574,201211
OK,147,32,835,147,2014-10-01T07:20:00,2,28102011,201211
OK,125,38,835,125,2014-10-01T07:25:00,0,28102459,201211
OK,129,37,835,129,2014-10-01T07:30:00,2,28102892,201211
OK,108,44,835,108,2014-10-01T07:35:00,3,28103333,201211
OK,105,45,835,105,2014-10-01T07:40:00,2,28103779,201211
OK,251,19,835,251,2014-10-01T07:45:00,1,28104223,201211
OK,251,19,835,251,2014-10-01T07:50:00,1,28104665,201211
OK,142,33,835,142,2014-10-01T07:55:00,1,28105109,201211
OK,142,33,835,142,2014-10-01T08:00:00,3,28105551,201211
OK,131,36,835,131,2014-10-01T08:05:00,5,28105998,201211
OK,131,36,835,131,2014-10-01T08:10:00,3,28106436,201211
OK,105,45,835,105,2014-10-01T08:15:00,1,28106844,201211
OK,105,45,835,105,2014-10-01T08:20:00,0,28107273,201211
OK,105,45,835,105,2014-10-01T08:25:00,0,28107722,201211
OK,98,48,835,98,2014-10-01T08:30:00,1,28108161,201211
OK,98,48,835,98,2014-10-01T08:35:00,1,28108610,201211
OK,133,36,835,133,2014-10-01T08:40:00,1,28109040,201211
OK,112,42,835,112,2014-10-01T08:45:00,2,28109487,201211
OK,121,39,835,121,2014-10-01T08:50:00,2,28109833,201211
OK,130,36,835,130,2014-10-01T08:55:00,4,28110279,201211
OK,142,33,835,142,2014-10-01T09:00:00,4,28110704,201211
OK,129,37,835,129,2014-10-01T09:05:00,1,28111151,201211
OK,181,26,835,181,2014-10-01T09:10:00,2,28111581,201211
OK,181,26,835,181,2014-10-01T09:15:00,2,28112029,201211
OK,181,26,835,181,2014-10-01T09:20:00,0,28112372,201211
OK,88,54,835,88,2014-10-01T09:25:00,1,28112819,201211
OK,88,54,835,88,2014-10-01T09:30:00,0,28113245,201211
OK,151,31,835,151,2014-10-01T09:35:00,4,28113692,201211
OK,151,31,835,151,2014-10-01T09:40:00,4,28114125,201211
OK,105,45,835,105,2014-10-01T09:45:00,1,28114573,201211
OK,122,39,835,122,2014-10-01T09:50:00,1,28114929,201211
OK,102,47,835,102,2014-10-01T09:55:00,1,28115376,201211
OK,172,27,835,172,2014-10-01T10:00:00,2,28115790,201211
OK,149,32,835,149,2014-10-01T10:05:00,3,28116237,201211
OK,137,35,835,137,2014-10-01T10:10:00,1,28116647,201211
OK,203,23,835,203,2014-10-01T10:15:00,1,28117094,201211
OK,108,44,835,108,2014-10-01T10:20:00,1,28117520,201211
OK,118,40,835,118,2014-10-01T10:25:00,2,28117968,201211
OK,127,37,835,127,2014-10-01T10:30:00,2,28118413,201211
OK,108,44,835,108,2014-10-01T10:35:00,0,28118860,201211
OK,128,37,835,128,2014-10-01T10:40:00,7,28119304,201211
OK,155,30,835,155,2014-10-01T10:45:00,3,28119752,201211
OK,167,28,835,167,2014-10-01T10:50:00,4,28120200,201211
OK,167,28,835,167,2014-10-01T10:55:00,4,28120649,201211
OK,137,35,835,137,2014-10-01T11:00:00,2,28121034,201211
OK,137,35,835,137,2014-10-01T11:05:00,2,28121481,201211
OK,125,38,835,125,2014-10-01T11:10:00,2,28121920,201211
OK,118,40,835,118,2014-10-01T11:15:00,3,28122368,201211
OK,118,40,835,118,2014-10-01T11:20:00,1,28122810,201211
OK,118,40,835,118,2014-10-01T11:25:00,0,28123258,201211
OK,118,40,835,118,2014-10-01T11:30:00,0,28123692,201211
OK,118,40,835,118,2014-10-01T11:35:00,0,28124139,201211
OK,118,40,835,118,2014-10-01T11:40:00,0,28124545,201211
OK,109,44,835,109,2014-10-01T11:45:00,1,28124990,201211
OK,109,44,835,109,2014-10-01T11:50:00,1,28125419,201211
OK,118,40,835,118,2014-10-01T11:55:00,4,28125868,201211
OK,118,40,835,118,2014-10-01T12:00:00,3,28126222,201211
OK,118,40,835,118,2014-10-01T12:05:00,0,28126669,201211
OK,149,32,835,149,2014-10-01T12:10:00,3,28127118,201211
OK,149,32,835,149,2014-10-01T12:15:00,3,28127567,201211
OK,142,33,835,142,2014-10-01T12:20:00,2,28127997,201211
OK,138,34,835,138,2014-10-01T12:25:00,7,28128444,201211
OK,138,34,835,138,2014-10-01T12:30:00,5,28128880,201211
OK,147,32,835,147,2014-10-01T12:35:00,5,28129328,201211
OK,147,32,835,147,2014-10-01T12:40:00,4,28129763,201211
OK,128,37,835,128,2014-10-01T12:45:00,3,28130211,201211
OK,129,37,835,129,2014-10-01T12:50:00,2,28130641,201211
OK,123,39,835,123,2014-10-01T12:55:00,1,28131088,201211
OK,166,28,835,166,2014-10-01T13:00:00,1,28131527,201211
OK,166,28,835,166,2014-10-01T13:05:00,1,28131974,201211
OK,122,39,835,122,2014-10-01T13:10:00,3,28132413,201211
OK,116,41,835,116,2014-10-01T13:15:00,2,28132859,201211
OK,134,35,835,134,2014-10-01T13:20:00,2,28133297,201211
OK,257,18,835,257,2014-10-01T13:25:00,1,28133746,201211
OK,257,18,835,257,2014-10-01T13:30:00,1,28134185,201211
OK,215,22,835,215,2014-10-01T13:35:00,2,28134634,201211
OK,208,23,835,208,2014-10-01T13:40:00,2,28135054,201211
OK,160,29,835,160,2014-10-01T13:45:00,4,28135502,201211
OK,167,28,835,167,2014-10-01T13:50:00,2,28135939,201211
OK,110,43,835,110,2014-10-01T13:55:00,1,28136388,201211
OK,110,43,835,110,2014-10-01T14:00:00,5,28136828,201211
OK,123,39,835,123,2014-10-01T14:05:00,6,28137277,201211
OK,122,39,835,122,2014-10-01T14:10:00,3,28137712,201211
OK,121,39,835,121,2014-10-01T14:15:00,4,28138160,201211
OK,147,32,835,147,2014-10-01T14:20:00,4,28138589,201211
OK,147,32,835,147,2014-10-01T14:25:00,4,28139037,201211
OK,155,30,835,155,2014-10-01T14:30:00,4,28139449,201211
OK,152,31,835,152,2014-10-01T14:35:00,4,28139897,201211
OK,128,37,835,128,2014-10-01T14:40:00,1,28140340,201211
OK,179,26,835,179,2014-10-01T14:45:00,2,28140788,201211
OK,180,26,835,180,2014-10-01T14:50:00,3,28141216,201211
OK,185,25,835,185,2014-10-01T14:55:00,2,28141663,201211
OK,156,30,835,156,2014-10-01T15:00:00,1,28142093,201211
OK,156,30,835,156,2014-10-01T15:05:00,3,28142540,201211
OK,149,32,835,149,2014-10-01T15:10:00,4,28142969,201211
OK,150,31,835,150,2014-10-01T15:15:00,6,28143416,201211
OK,150,31,835,150,2014-10-01T15:20:00,5,28143864,201211
OK,111,43,835,111,2014-10-01T15:25:00,4,28144313,201211
OK,141,34,835,141,2014-10-01T15:30:00,3,28144738,201211
OK,143,33,835,143,2014-10-01T15:35:00,3,28145148,201211
OK,126,38,835,126,2014-10-01T15:40:00,2,28145597,201211
OK,111,43,835,111,2014-10-01T15:45:00,3,28146046,201211
OK,126,38,835,126,2014-10-01T15:50:00,5,28146495,201211
OK,124,38,835,124,2014-10-01T15:55:00,4,28146907,201211
OK,120,39,835,120,2014-10-01T16:00:00,2,28147347,201211
OK,119,40,835,119,2014-10-01T16:05:00,2,28147796,201211
OK,102,47,835,102,2014-10-01T16:10:00,3,28148199,201211
OK,121,39,835,121,2014-10-01T16:15:00,2,28148646,201211
OK,144,33,835,144,2014-10-01T16:20:00,4,28149087,201211
OK,133,36,835,133,2014-10-01T16:25:00,5,28149534,201211
OK,90,53,835,90,2014-10-01T16:30:00,0,28149962,201211
OK,125,38,835,125,2014-10-01T16:35:00,1,28150409,201211
OK,125,38,835,125,2014-10-01T16:40:00,2,28150829,201211
OK,125,38,835,125,2014-10-01T16:45:00,0,28151276,201211
OK,124,38,835,124,2014-10-01T16:55:00,2,28151725,201211
OK,95,50,835,95,2014-10-01T17:00:00,1,28152174,201211
OK,88,54,835,88,2014-10-01T17:05:00,1,28152620,201211
OK,126,38,835,126,2014-10-01T17:10:00,3,28153067,201211
OK,119,40,835,119,2014-10-01T17:15:00,3,28153516,201211
OK,119,40,835,119,2014-10-01T17:20:00,1,28153929,201211
OK,104,46,835,104,2014-10-01T17:25:00,1,28154375,201211
OK,94,51,835,94,2014-10-01T17:30:00,1,28154817,201211
OK,94,51,835,94,2014-10-01T17:35:00,1,28155265,201211
OK,143,33,835,143,2014-10-01T17:40:00,1,28155686,201211
OK,143,33,835,143,2014-10-01T17:45:00,1,28156132,201211
OK,112,42,835,112,2014-10-01T17:50:00,2,28156581,201211
OK,109,44,835,109,2014-10-01T17:55:00,1,28157019,201211
OK,104,46,835,104,2014-10-01T18:00:00,1,28157451,201211
OK,93,51,835,93,2014-10-01T18:05:00,1,28157897,201211
OK,93,51,835,93,2014-10-01T18:10:00,1,28158341,201211
OK,93,51,835,93,2014-10-01T18:15:00,0,28158788,201211
OK,93,51,835,93,2014-10-01T18:20:00,0,28159233,201211
OK,93,51,835,93,2014-10-01T18:25:00,0,28159569,201211
OK,93,51,835,93,2014-10-01T18:30:00,0,28160017,201211
OK,93,51,835,93,2014-10-01T18:35:00,0,28160466,201211
OK,93,51,835,93,2014-10-01T18:40:00,0,28160905,201211
OK,93,51,835,93,2014-10-01T18:45:00,0,28161353,201211
OK,188,25,835,188,2014-10-01T18:50:00,2,28161771,201211
OK,122,39,835,122,2014-10-01T19:00:00,0,28162219,201211
OK,122,39,835,122,2014-10-01T19:05:00,0,28163053,201211
OK,122,39,835,122,2014-10-01T19:10:00,0,28163500,201211
OK,97,49,835,97,2014-10-01T19:15:00,1,28163949,201211
OK,97,49,835,97,2014-10-01T19:20:00,0,28164382,201211
OK,97,49,835,97,2014-10-01T19:25:00,0,28164829,201211
OK,103,46,835,103,2014-10-01T19:30:00,2,28165256,201211
OK,123,39,835,123,2014-10-01T19:35:00,1,28165702,201211
OK,119,40,835,119,2014-10-01T19:40:00,1,28166143,201211
OK,119,40,835,119,2014-10-01T19:45:00,1,28166505,201211
OK,134,35,835,134,2014-10-01T19:50:00,1,28166954,201211
OK,124,38,835,124,2014-10-01T19:55:00,2,28167383,201211
OK,117,41,835,117,2014-10-01T20:00:00,1,28167817,201211
OK,117,41,835,117,2014-10-01T20:05:00,0,28168265,201211
OK,83,57,835,83,2014-10-01T20:10:00,1,28168710,201211
OK,83,57,835,83,2014-10-01T20:15:00,1,28169159,201211
OK,83,57,835,83,2014-10-01T20:20:00,0,28169607,201211
OK,83,57,835,83,2014-10-01T20:25:00,0,28170033,201211
OK,83,57,835,83,2014-10-01T20:30:00,0,28170478,201211
OK,83,57,835,83,2014-10-01T20:35:00,0,28170926,201211
OK,105,45,835,105,2014-10-01T20:40:00,2,28171363,201211
OK,83,57,835,83,2014-10-01T20:45:00,0,28171809,201211
OK,83,57,835,83,2014-10-01T20:50:00,0,28172257,201211
OK,83,57,835,83,2014-10-01T20:55:00,0,28172703,201211
OK,83,57,835,83,2014-10-01T21:00:00,0,28173149,201211
OK,83,57,835,83,2014-10-01T21:05:00,0,28173598,201211
OK,83,57,835,83,2014-10-01T21:10:00,0,28174039,201211
OK,98,48,835,98,2014-10-01T21:15:00,0,28174488,201211
OK,98,48,835,98,2014-10-01T21:20:00,0,28174914,201211
OK,98,48,835,98,2014-10-01T21:25:00,0,28175310,201211
OK,98,48,835,98,2014-10-01T21:30:00,0,28175759,201211
OK,98,48,835,98,2014-10-01T21:35:00,0,28176208,201211
OK,98,48,835,98,2014-10-01T21:40:00,0,28176657,201211
OK,98,48,835,98,2014-10-01T21:45:00,0,28177021,201211
OK,98,48,835,98,2014-10-01T21:50:00,0,28177453,201211
OK,98,48,835,98,2014-10-01T21:55:00,0,28177899,201211
OK,98,48,835,98,2014-10-01T22:00:00,0,28178348,201211
OK,98,48,835,98,2014-10-01T22:05:00,0,28178795,201211
OK,98,48,835,98,2014-10-01T22:10:00,0,28179231,201211
OK,98,48,835,98,2014-10-01T22:15:00,0,28179672,201211
OK,98,48,835,98,2014-10-01T22:20:00,0,28180119,201211
OK,98,48,835,98,2014-10-01T22:25:00,0,28180518,201211
OK,98,48,835,98,2014-10-01T22:30:00,0,28180966,201211
OK,98,48,835,98,2014-10-01T22:35:00,0,28181390,201211
OK,98,48,835,98,2014-10-01T22:40:00,0,28181838,201211
OK,98,48,835,98,2014-10-01T22:45:00,0,28182285,201211
OK,98,48,835,98,2014-10-01T22:50:00,0,28182734,201211
OK,98,48,835,98,2014-10-01T22:55:00,0,28183151,201211
OK,98,48,835,98,2014-10-01T23:00:00,0,28183584,201211
OK,98,48,835,98,2014-10-01T23:05:00,0,28184029,201211
OK,98,48,835,98,2014-10-01T23:10:00,0,28184478,201211
OK,98,48,835,98,2014-10-01T23:15:00,0,28184913,201211
OK,98,48,835,98,2014-10-01T23:20:00,0,28185361,201211
OK,98,48,835,98,2014-10-01T23:25:00,0,28185792,201211
OK,98,48,835,98,2014-10-01T23:30:00,0,28186184,201211
OK,98,48,835,98,2014-10-01T23:40:00,0,28187031,201211
OK,98,48,835,98,2014-10-01T23:45:00,0,28187473,201211
OK,98,48,835,98,2014-10-01T23:55:00,0,28188363,201211
OK,98,48,835,98,2014-10-02T00:00:00,0,28188799,201211
OK,98,48,835,98,2014-10-02T00:05:00,0,28189248,201211
OK,98,48,835,98,2014-10-02T00:10:00,0,28189672,201211
OK,98,48,835,98,2014-10-02T00:15:00,0,28190119,201211
OK,98,48,835,98,2014-10-02T00:20:00,0,28190474,201211
OK,98,48,835,98,2014-10-02T00:25:00,0,28190921,201211
OK,98,48,835,98,2014-10-02T00:30:00,0,28191370,201211
OK,98,48,835,98,2014-10-02T00:35:00,0,28191678,201211
OK,98,48,835,98,2014-10-02T00:40:00,0,28192125,201211
OK,98,48,835,98,2014-10-02T00:45:00,0,28192559,201211
OK,98,48,835,98,2014-10-02T00:50:00,0,28193002,201211
OK,98,48,835,98,2014-10-02T00:55:00,0,28193369,201211
OK,98,48,835,98,2014-10-02T01:05:00,0,28194267,201211
OK,98,48,835,98,2014-10-02T01:15:00,0,28194716,201211
OK,98,48,835,98,2014-10-02T01:20:00,0,28195401,201211
OK,98,48,835,98,2014-10-02T01:30:00,0,28195850,201211
OK,98,48,835,98,2014-10-02T01:35:00,0,28196583,201211
OK,98,48,835,98,2014-10-02T01:40:00,0,28197008,201211
OK,98,48,835,98,2014-10-02T01:45:00,0,28197455,201211
OK,98,48,835,98,2014-10-02T01:50:00,0,28197903,201211
OK,98,48,835,98,2014-10-02T01:55:00,0,28198351,201211
OK,98,48,835,98,2014-10-02T02:05:00,0,28198800,201211
OK,98,48,835,98,2014-10-02T02:10:00,0,28199614,201211
OK,98,48,835,98,2014-10-02T02:15:00,0,28200056,201211
OK,98,48,835,98,2014-10-02T02:20:00,0,28200499,201211
OK,98,48,835,98,2014-10-02T02:25:00,0,28200948,201211
OK,98,48,835,98,2014-10-02T02:30:00,0,28201379,201211
OK,98,48,835,98,2014-10-02T02:45:00,0,28202277,201211
OK,98,48,835,98,2014-10-02T02:50:00,0,28202719,201211
OK,98,48,835,98,2014-10-02T02:55:00,0,28203167,201211
OK,126,38,835,126,2014-10-02T03:00:00,2,28203602,201211
OK,126,38,835,126,2014-10-02T03:10:00,0,28204051,201211
OK,126,38,835,126,2014-10-02T03:25:00,0,28204500,201211
OK,126,38,835,126,2014-10-02T03:30:00,0,28204949,201211
OK,126,38,835,126,2014-10-02T03:35:00,0,28205379,201211
OK,126,38,835,126,2014-10-02T03:40:00,0,28205824,201211
OK,126,38,835,126,2014-10-02T03:45:00,0,28206207,201211
OK,126,38,835,126,2014-10-02T03:55:00,0,28207105,201211
OK,126,38,835,126,2014-10-02T04:00:00,0,28207527,201211
OK,126,38,835,126,2014-10-02T04:05:00,0,28207973,201211
OK,126,38,835,126,2014-10-02T04:10:00,0,28208403,201211
OK,126,38,835,126,2014-10-02T04:15:00,0,28208849,201211
OK,126,38,835,126,2014-10-02T04:20:00,0,28209288,201211
OK,126,38,835,126,2014-10-02T04:25:00,0,28209736,201211
OK,126,38,835,126,2014-10-02T04:30:00,0,28210160,201211
OK,126,38,835,126,2014-10-02T04:35:00,0,28210608,201211
OK,126,38,835,126,2014-10-02T04:40:00,0,28211036,201211
OK,126,38,835,126,2014-10-02T04:45:00,0,28211477,201211
OK,126,38,835,126,2014-10-02T04:50:00,0,28211855,201211
OK,118,40,835,118,2014-10-02T04:55:00,0,28212304,201211
OK,118,40,835,118,2014-10-02T05:00:00,0,28212733,201211
OK,106,45,835,106,2014-10-02T05:05:00,2,28213182,201211
OK,98,48,835,98,2014-10-02T05:10:00,0,28213621,201211
OK,185,25,835,185,2014-10-02T05:15:00,2,28214069,201211
OK,127,37,835,127,2014-10-02T05:20:00,0,28214485,201211
OK,110,43,835,110,2014-10-02T05:25:00,1,28214931,201211
OK,110,43,835,110,2014-10-02T05:30:00,0,28215350,201211
OK,143,33,835,143,2014-10-02T05:40:00,3,28215796,201211
OK,106,45,835,106,2014-10-02T05:45:00,0,28216575,201211
OK,106,45,835,106,2014-10-02T05:50:00,0,28217022,201211
OK,119,40,835,119,2014-10-02T05:55:00,4,28217471,201211
OK,162,29,835,162,2014-10-02T06:00:00,4,28217910,201211
OK,167,28,835,167,2014-10-02T06:05:00,2,28218359,201211
OK,167,28,835,167,2014-10-02T06:10:00,0,28218781,201211
OK,150,31,835,150,2014-10-02T06:15:00,6,28219228,201211
OK,146,32,835,146,2014-10-02T06:20:00,6,28219603,201211
OK,126,38,835,126,2014-10-02T06:25:00,1,28220050,201211
OK,126,38,835,126,2014-10-02T06:30:00,0,28220486,201211
OK,125,38,835,125,2014-10-02T06:40:00,5,28220933,201211
OK,131,36,835,131,2014-10-02T06:45:00,4,28221600,201211
OK,201,23,835,201,2014-10-02T07:00:00,2,28222194,201211
OK,124,38,835,124,2014-10-02T07:05:00,1,28222643,201211
OK,124,38,835,124,2014-10-02T07:10:00,0,28223076,201211
OK,124,38,835,124,2014-10-02T07:15:00,0,28223510,201211
OK,124,38,835,124,2014-10-02T07:20:00,0,28223957,201211
OK,125,38,835,125,2014-10-02T07:25:00,3,28224312,201211
OK,127,37,835,127,2014-10-02T07:30:00,0,28224761,201211
OK,78,61,835,78,2014-10-02T07:35:00,0,28225210,201211
OK,78,61,835,78,2014-10-02T07:40:00,0,28225536,201211
OK,135,35,835,135,2014-10-02T07:50:00,1,28226422,201211
OK,114,42,835,114,2014-10-02T07:55:00,2,28226871,201211
OK,110,43,835,110,2014-10-02T08:00:00,1,28227289,201211
OK,109,44,835,109,2014-10-02T08:05:00,1,28227735,201211
OK,109,44,835,109,2014-10-02T08:10:00,1,28228096,201211
OK,142,33,835,142,2014-10-02T08:15:00,1,28228543,201211
OK,142,33,835,142,2014-10-02T08:20:00,0,28228955,201211
OK,125,38,835,125,2014-10-02T08:25:00,4,28229402,201211
OK,86,55,835,86,2014-10-02T08:30:00,0,28229755,201211
OK,125,38,835,125,2014-10-02T08:35:00,2,28230201,201211
OK,125,38,835,125,2014-10-02T08:40:00,0,28230574,201211
OK,125,38,835,125,2014-10-02T08:45:00,0,28231016,201211
OK,125,38,835,125,2014-10-02T08:50:00,1,28231440,201211
OK,125,38,835,125,2014-10-02T08:55:00,0,28231888,201211
OK,138,34,835,138,2014-10-02T09:00:00,3,28232232,201211
OK,137,35,835,137,2014-10-02T09:10:00,0,28232679,201211
OK,145,33,835,145,2014-10-02T09:15:00,1,28233128,201211
OK,145,33,835,145,2014-10-02T09:20:00,1,28233553,201211
OK,127,37,835,127,2014-10-02T09:25:00,3,28234001,201211
OK,97,49,835,97,2014-10-02T09:30:00,1,28234336,201211
OK,132,36,835,132,2014-10-02T09:35:00,1,28234783,201211
OK,132,36,835,132,2014-10-02T09:40:00,0,28235210,201211
OK,132,36,835,132,2014-10-02T09:45:00,0,28235659,201211
OK,132,36,835,132,2014-10-02T09:50:00,0,28236103,201211
OK,177,27,835,177,2014-10-02T09:55:00,2,28236549,201211
OK,177,27,835,177,2014-10-02T10:00:00,2,28236954,201211
OK,106,45,835,106,2014-10-02T10:05:00,0,28237400,201211
OK,104,46,835,104,2014-10-02T10:10:00,3,28237848,201211
OK,122,39,835,122,2014-10-02T10:15:00,2,28238296,201211
OK,132,36,835,132,2014-10-02T10:20:00,1,28238737,201211
OK,132,36,835,132,2014-10-02T10:25:00,0,28239185,201211
OK,132,36,835,132,2014-10-02T10:30:00,0,28239616,201211
OK,106,45,835,106,2014-10-02T10:35:00,1,28240064,201211
OK,118,40,835,118,2014-10-02T10:40:00,1,28240509,201211
OK,120,39,835,120,2014-10-02T10:45:00,2,28240957,201211
OK,123,39,835,123,2014-10-02T10:50:00,0,28241390,201211
OK,122,39,835,122,2014-10-02T10:55:00,3,28241837,201211
OK,122,39,835,122,2014-10-02T11:00:00,1,28242235,201211
OK,122,39,835,122,2014-10-02T11:05:00,0,28242682,201211
OK,95,50,835,95,2014-10-02T11:15:00,4,28243131,201211
OK,146,32,835,146,2014-10-02T11:20:00,2,28243895,201211
OK,146,32,835,146,2014-10-02T11:25:00,0,28244324,201211
OK,146,32,835,146,2014-10-02T11:30:00,0,28244772,201211
OK,130,36,835,130,2014-10-02T11:35:00,3,28245221,201211
OK,130,36,835,130,2014-10-02T11:40:00,3,28245629,201211
OK,130,36,835,130,2014-10-02T11:45:00,0,28246076,201211
OK,134,35,835,134,2014-10-02T11:50:00,1,28246513,201211
OK,121,39,835,121,2014-10-02T11:55:00,2,28246962,201211
OK,105,45,835,105,2014-10-02T12:00:00,1,28247408,201211
OK,105,45,835,105,2014-10-02T12:05:00,0,28247840,201211
OK,105,45,835,105,2014-10-02T12:10:00,0,28248287,201211
OK,105,45,835,105,2014-10-02T12:15:00,2,28248735,201211
OK,105,45,835,105,2014-10-02T12:20:00,0,28249163,201211
OK,156,30,835,156,2014-10-02T12:25:00,3,28249606,201211
OK,156,30,835,156,2014-10-02T12:30:00,1,28250025,201211
OK,117,41,835,117,2014-10-02T12:35:00,3,28250423,201211
OK,225,21,835,225,2014-10-02T12:45:00,5,28251203,201211
OK,140,34,835,140,2014-10-02T13:20:00,5,28251748,201211
OK,144,33,835,144,2014-10-02T13:30:00,3,28252332,201211
OK,144,33,835,144,2014-10-02T13:35:00,1,28252774,201211
OK,144,33,835,144,2014-10-02T13:40:00,0,28253191,201211
OK,114,42,835,114,2014-10-02T13:45:00,6,28253640,201211
OK,124,38,835,124,2014-10-02T13:50:00,1,28254046,201211
OK,222,21,835,222,2014-10-02T13:55:00,4,28254366,201211
OK,131,36,835,131,2014-10-02T14:10:00,3,28254943,201211
OK,128,37,835,128,2014-10-02T14:15:00,2,28255392,201211
OK,126,38,835,126,2014-10-02T14:20:00,1,28255820,201211
OK,126,38,835,126,2014-10-02T14:25:00,0,28256269,201211
OK,126,38,835,126,2014-10-02T14:30:00,0,28256697,201211
OK,169,28,835,169,2014-10-02T14:35:00,4,28257146,201211
OK,169,28,835,169,2014-10-02T14:40:00,6,28257587,201211
OK,152,31,835,152,2014-10-02T14:45:00,1,28258035,201211
OK,155,30,835,155,2014-10-02T14:50:00,2,28258468,201211
OK,146,32,835,146,2014-10-02T14:55:00,2,28258914,201211
OK,141,34,835,141,2014-10-02T15:00:00,4,28259363,201211
OK,159,30,835,159,2014-10-02T15:05:00,1,28259810,201211
OK,159,30,835,159,2014-10-02T15:10:00,0,28260243,201211
OK,129,37,835,129,2014-10-02T15:15:00,2,28260692,201211
OK,129,37,835,129,2014-10-02T15:20:00,2,28261132,201211
OK,120,39,835,120,2014-10-02T15:25:00,0,28261514,201211
OK,120,39,835,120,2014-10-02T15:30:00,0,28261944,201211
OK,155,30,835,155,2014-10-02T15:35:00,2,28262391,201211
OK,215,22,835,215,2014-10-02T15:40:00,1,28262837,201211
OK,122,39,835,122,2014-10-02T15:45:00,3,28263275,201211
OK,129,37,835,129,2014-10-02T15:50:00,2,28263716,201211